Brisbane, Australia

4:38 PM AEST on March 23, 2017 (GMT +1000)
Brisbane

Weather History for 94578 - May, 2013

Change the Weather History Date:

Monday, May 20, 2013

  Actual Average Record
Temperature  
Mean Temperature 58 °F -  
Max Temperature 70 °F 71 °F - ()
Min Temperature 45 °F 54 °F - ()
Degree Days  
Heating Degree Days 8    
Growing Degree Days 8 (Base 50)    
Moisture  
Dew Point 42 °F    
Average Humidity 59    
Maximum Humidity 82    
Minimum Humidity 18    
Precipitation  
Precipitation 0.00 in 0.11 in - ()
Sea Level Pressure  
Sea Level Pressure 30.03 in    
Wind  
Wind Speed 6 mph ()    
Max Wind Speed 10 mph    
Max Gust Speed -    
Visibility 18.6 miles    
Events      
T = Trace of Precipitation, MM = Missing Value Source: Averaged Metar Reports

Daily Weather History Graph

Daily Weather History Graph

Search for Another Location

Airport or City:

Trip Planner

Search our weather history database for the weather conditions in past years. The results will help you decide how hot, cold, wet, or windy it might be!

Date:

Astronomy

May. 20, 2013 Rise Set
Actual Time 6:23 AM AEST 5:04 PM AEST
Civil Twilight 5:58 AM AEST 5:29 PM AEST
Nautical Twilight 5:29 AM AEST 5:57 PM AEST
Astronomical Twilight 5:01 AM AEST 6:25 PM AEST
Moon 1:19 PM AEST (5/20) 12:54 AM AEST (5/20)
Length of Visible Light 11h 31m
Length of Day
10h 41m
Waxing Gibbous, 69% of the Moon is Illuminated
May 20
Waxing Gibbous
May 25
Full
Jun 1
Last Quarter
Jun 9
New
Jun 17
First Quarter

Hourly Weather History & Observations

Time (AEST) Temp. Windchill Dew Point Humidity Pressure Visibility Wind Dir Wind Speed Gust Speed Precip Events Conditions
12:00 AM 49 °F - 40 °F 64% 30.05 in 19 mi WNW 5.8 mph - -   Partly Cloudy
12:00 AM 50.0 °F - 41.0 °F 71% 30.04 in - WNW 5.8 mph - N/A   Clear
12:30 AM 48.2 °F - 41.0 °F 76% 30.04 in - SSW 6.9 mph - N/A   Clear
1:00 AM 48 °F - 41 °F 70% 30.05 in - SSW 6.9 mph - -  
1:00 AM 48.2 °F - 41.0 °F 76% 30.04 in - SSW 6.9 mph - N/A   Clear
1:30 AM 48.2 °F - 41.0 °F 76% 30.04 in - West 4.6 mph - N/A   Clear
2:00 AM 48.2 °F - 41.0 °F 76% 30.04 in - WSW 6.9 mph - N/A   Clear
2:30 AM 46.4 °F 42.4 °F 41.0 °F 81% 30.04 in - West 8.1 mph - N/A   Clear
3:00 AM 48 °F - 40 °F 64% 30.04 in 19 mi WSW 9.2 mph - -   Partly Cloudy
3:00 AM 48.2 °F - 39.2 °F 71% 30.04 in - WSW 9.2 mph - N/A   Clear
3:30 AM 46.4 °F 42.9 °F 41.0 °F 81% 30.04 in - SSW 6.9 mph - N/A   Clear
4:00 AM 48 °F - 41 °F 68% 30.04 in - SSW 5.8 mph - -  
4:00 AM 48.2 °F - 41.0 °F 76% 30.04 in - SSW 5.8 mph - N/A   Clear
4:30 AM 46.4 °F 42.9 °F 41.0 °F 81% 30.04 in - WSW 6.9 mph - N/A   Clear
5:00 AM 48.2 °F - 39.2 °F 71% 30.04 in - WSW 5.8 mph - N/A   Clear
5:30 AM 48.2 °F - 41.0 °F 76% 30.04 in - SSW 4.6 mph - N/A   Clear
6:00 AM 47 °F - 40 °F 68% 30.06 in 19 mi SSW 4.6 mph - -   Partly Cloudy
6:00 AM 48.2 °F - 39.2 °F 71% 30.06 in - SSW 4.6 mph - N/A   Clear
6:30 AM 48.2 °F - 41.0 °F 76% 30.06 in - SSW 5.8 mph - N/A   Clear
7:00 AM 49 °F - 42 °F 68% 30.08 in - SSW 6.9 mph - -  
7:00 AM 48.2 °F - 41.0 °F 76% 30.06 in - SSW 6.9 mph - N/A   Clear
7:30 AM 50.0 °F - 44.6 °F 82% 30.06 in - SSW 8.1 mph - N/A   Clear
8:00 AM 53.6 °F - 44.6 °F 72% 30.06 in - SW 4.6 mph - N/A   Clear
8:30 AM 55.4 °F - 44.6 °F 67% 30.09 in - WSW 5.8 mph - N/A   Clear
9:00 AM 58 °F - 42 °F 43% 30.11 in 19 mi WSW 6.9 mph - -   Haze
9:00 AM 59.0 °F - 41.0 °F 51% 30.09 in - WSW 6.9 mph - N/A   Clear
9:30 AM 60.8 °F - 42.8 °F 52% 30.09 in - WSW 6.9 mph - N/A   Clear
10:00 AM 64 °F - 40 °F 30% 30.11 in - WSW 8.1 mph - -  
10:00 AM 64.4 °F - 41.0 °F 42% 30.09 in - WSW 8.1 mph - N/A   Clear
10:30 AM 64.4 °F - 39.2 °F 40% 30.09 in - WSW 6.9 mph - N/A   Clear
11:00 AM 66.2 °F - 37.4 °F 35% 30.06 in - WSW 8.1 mph - N/A   Clear
11:30 AM 68.0 °F - 37.4 °F 33% 30.04 in - West 9.2 mph - N/A   Clear
12:00 PM 67 °F - 37 °F 22% 30.05 in 19 mi WSW 8.1 mph - -   Partly Cloudy
12:00 PM 68.0 °F - 37.4 °F 33% 30.04 in - WSW 8.1 mph - N/A   Clear
12:30 PM 69.8 °F - 33.8 °F 27% 30.01 in - WSW 6.9 mph - N/A   Clear
1:00 PM 69 °F - 38 °F 21% 30.01 in - West 5.8 mph - -  
1:00 PM 69.8 °F - 37.4 °F 31% 30.01 in - West 5.8 mph - N/A   Clear
1:30 PM 69.8 °F - 37.4 °F 31% 29.98 in - NNE 4.6 mph - N/A   Clear
2:00 PM 69.8 °F - 32.0 °F 25% 29.98 in - North 6.9 mph - N/A   Clear
2:30 PM 69.8 °F - 37.4 °F 31% 29.98 in - WSW 5.8 mph - N/A   Clear
3:00 PM 70 °F - 36 °F 18% 29.99 in 19 mi NNE 5.8 mph - -   Partly Cloudy
3:00 PM 69.8 °F - 35.6 °F 28% 29.98 in - NNE 5.8 mph - N/A   Clear
3:30 PM 69.8 °F - 42.8 °F 38% 29.98 in - NNE 10.4 mph - N/A   Clear
4:00 PM 66 °F - 46 °F 37% 29.98 in - NNE 8.1 mph - -  
4:00 PM 66.2 °F - 46.4 °F 49% 29.98 in - NNE 8.1 mph - N/A   Clear
4:30 PM 64.4 °F - 46.4 °F 52% 29.98 in - NNE 6.9 mph - N/A   Clear
5:00 PM 60.8 °F - 48.2 °F 63% 29.98 in - NNE 6.9 mph - N/A   Clear
5:30 PM 59.0 °F - 48.2 °F 67% 29.98 in - NE 4.6 mph - N/A   Clear
6:00 PM 58 °F - 47 °F 58% 29.98 in 19 mi NE 5.8 mph - -   Partly Cloudy
6:00 PM 57.2 °F - 46.4 °F 67% 29.98 in - NE 5.8 mph - N/A   Clear
6:30 PM 59.0 °F - 48.2 °F 67% 29.98 in - NNE 4.6 mph - N/A   Clear
7:00 PM 58 °F - 48 °F 62% 30.00 in - NE 3.5 mph - -  
7:00 PM 57.2 °F - 48.2 °F 72% 29.98 in - NE 3.5 mph - N/A   Clear
7:30 PM 55.4 °F - 48.2 °F 77% 30.01 in - WNW 3.5 mph - N/A   Clear
8:00 PM 55.4 °F - 48.2 °F 77% 30.01 in - West 4.6 mph - N/A   Clear
8:30 PM 57.2 °F - 46.4 °F 67% 30.04 in - WNW 4.6 mph - N/A   Clear
9:00 PM 55 °F - 45 °F 60% 30.04 in 16 mi WNW 3.5 mph - -   Partly Cloudy
9:00 PM 55.4 °F - 44.6 °F 67% 30.04 in - WNW 3.5 mph - N/A   Clear
9:30 PM 53.6 °F - 44.6 °F 72% 30.04 in - West 4.6 mph - N/A   Clear
10:00 PM 52 °F - 45 °F 68% 30.04 in - Calm Calm - -  
10:00 PM 51.8 °F - 44.6 °F 76% 30.04 in - Calm Calm - N/A   Clear
10:30 PM 50.0 °F - 42.8 °F 76% 30.04 in - Calm Calm - N/A   Clear
11:00 PM 50.0 °F - 42.8 °F 76% 30.04 in - West 4.6 mph - N/A   Clear
11:30 PM 50.0 °F - 42.8 °F 76% 30.04 in - SW 4.6 mph - N/A   Clear